Weather Roundup
Issued by NWS

Current Version | Previous Version | Graphics & Text | Print | Product List | Glossary On
Versions: 1 2 3 4 5 6 7 8 9 10 11 12 13 14 15 16 17 18 19 20 21 22 23 24 25 26 27 28 29 30 31 32 33 34 35 36 37 38 39 40 41 42 43 44 45 46 47 48 49 50
040
NZUS99 KDVN 072010
HRRRRR
HOURLY WEATHER ROUNDUP
NATIONAL WEATHER SERVICE QUAD CITIES IA IL
200 PM CST SAT DEC 07 2019

Note: "Fair" indicates few or no clouds below 12,000 feet with
no significant weather and/or obstructions to visibility.
------------------------------------------------------------------

CITY           SKY/WX    TMP DP  RH WIND       PRES   REMARKS
BURLINGTON     SUNNY     42  30  62 S14       30.23F WCI  35
CEDAR RAPIDS   FAIR      41  28  60 S13       30.16F WCI  34
DAVENPORT      FAIR      40  29  64 S15       30.24F WCI  32
DUBUQUE        FAIR      38  27  64 S15       30.18F WCI  29
IOWA CITY      FAIR      43  28  55 S14       30.21F WCI  36
MOLINE         FAIR      42  29  59 S9        30.23F WCI  37
------------------------------------------------------------------
The stations below are not NWS stations and are not subject to NWS
quality control.  Some stations do not report weather such as fog.
* - Stations that report TMP and DP in whole degrees Celsius, which
are then converted to Fahrenheit.
------------------------------------------------------------------

CITY           SKY/WX    TMP DP  RH WIND       PRES   REMARKS
CLINTON        FAIR      41  29  62 S12       30.23F WCI  34
FAIRFIELD *    SUNNY     43  30  61 S12       30.20F WCI  37
FORT MADISON * SUNNY     41  30  65 S9        30.24F WCI  35
FREEPORT       FAIR      37  29  73 SW14G21   30.25F WCI  28
INDEPENDENCE   FAIR      40  29  65 S15       30.14F WCI  32
KEOKUK *       SUNNY     41  32  70 S8        30.24F WCI  36
MACOMB         SUNNY     42  28  58 S9        30.28F WCI  37
MONTICELLO *   FAIR      41  30  65 S14       30.18F WCI  33
MT PLEASANT *  SUNNY     43  32  65 S12       30.22F WCI  37
MUSCATINE *    FAIR      43  28  56 S16       30.23F WCI  35
SAVANNA *      FAIR      39  28  65 S12       30.23F WCI  32
STERLING/R.F.  FAIR      39  29  67 VRB5      30.26F WCI  36
VINTON         FAIR      43  30  60 S15G24    30.15F WCI  36
WASHINGTON *   SUNNY     43  32  65 S14       30.19F WCI  36
------------------------------------------------------------------




USA.gov is the U.S. government's official web portal to all federal, state and local government web resources and services.